Regional Weather Roundup
Issued by NWS Boston, MA

Home | Current Version | Previous Version | Text Only | Print | Product List | Glossary On
Versions: 1 2 3 4 5 6 7 8 9 10 11 12 13 14 15 16 17 18 19 20 21 22 23 24 25 26 27 28 29 30 31 32 33 34 35 36 37 38 39 40 41 42 43 44 45 46 47 48 49
000
ASUS41 KBOX 161110
RWRBOX

REGIONAL WEATHER ROUNDUP
NATIONAL WEATHER SERVICE TAUNTON MA
700 AM EDT TUE SEP 16 2014

NOTE:  "FAIR" INDICATES FEW OR NO CLOUDS BELOW 12,000 FEET WITH NO
SIGNIFICANT WEATHER AND/OR OBSTRUCTIONS TO VISIBILITY.  THE FOLLOWING
OBSERVATION LOCATIONS DO NOT REPORT PRESENT WEATHER...PROVINCETOWN...
SMITHFIELD...BLOCK ISLAND...KEENE...AND OXFORD.

MAZALL-161200-
EASTERN MASSACHUSETTS

CITY           SKY/WX    TMP DP  RH WIND       PRES   REMARKS
BOSTON         CLOUDY    56  50  80 N3        30.05S
BEVERLY        CLOUDY    51  48  89 CALM      30.05S
LAWRENCE       CLOUDY    51  48  89 CALM      30.08S
BEDFORD        CLOUDY    48  47  96 CALM      30.05S
BLUE HILL        N/A     55  48  77 SW6       30.04S
NORWOOD        CLOUDY    47  45  93 CALM      30.05S
MARSHFIELD     NOT AVBL
PLYMOUTH       CLOUDY    52  48  86 CALM      30.06S
TAUNTON        CLOUDY    48  47  96 CALM      30.05S
NEW BEDFORD    CLOUDY    50  48  93 CALM      30.04F
$$

MAZALL-161200-
CAPE COD AND THE ISLANDS

CITY           SKY/WX    TMP DP  RH WIND       PRES   REMARKS
FALMOUTH       CLOUDY    54  52  94 CALM      30.06S
HYANNIS        CLOUDY    56  53  90 CALM      30.04F
CHATHAM        CLOUDY    58  52  80 CALM      30.07S
PROVINCETOWN   CLOUDY    59  48  67 S5        30.06S
NANTUCKET      CLOUDY    58  51  78 SE6       30.05S
MARTHAS VNYRD  CLOUDY    48  46  93 CALM      30.05S
$$

MAZALL-161200-
CENTRAL AND WESTERN MASSACHUSETTS

CITY           SKY/WX    TMP DP  RH WIND       PRES   REMARKS
WORCESTER      CLOUDY    53  46  77 CALM      30.05S
FITCHBURG      CLOUDY    51  47  86 CALM      30.06S
ORANGE         CLOUDY    49  47  93 CALM      30.04S
SPRINGFIELD    CLOUDY    50  48  93 N2        30.03S
WESTFIELD      CLOUDY    52  49  89 N3        30.03F
NORTH ADAMS    LGT RAIN  50  49  96 CALM      30.04S
PITTSFIELD     LGT RAIN  50  49  96 CALM      30.02S
$$

RIZALL-161200-
RHODE ISLAND

CITY           SKY/WX    TMP DP  RH WIND       PRES   REMARKS
PROVIDENCE     CLOUDY    54  50  86 CALM      30.06S
NEWPORT        CLOUDY    56  53  90 CALM      30.05S
BLOCK ISLAND   MOCLDY    57  46  67 CALM      30.05S
SMITHFIELD     CLOUDY    52  45  76 CALM      30.05S
WESTERLY       CLOUDY    51  48  89 N3        30.05S
$$

CTZALL-161200-
CONNECTICUT

CITY           SKY/WX    TMP DP  RH WIND       PRES   REMARKS
BRADLEY INTL   CLOUDY    52  49  89 CALM      30.03F
HARTFORD       MOCLDY    54  51  90 SE7       30.03F
BRIDGEPORT     PTCLDY    58  53  84 NE5       30.01F
DANBURY        MOCLDY    52  50  93 CALM      30.03F
GROTON         MOCLDY    52  51  97 N5        30.03F
NEW HAVEN      MOCLDY    55  49  80 N3        30.02F
CHESTER        FAIR      52  50  93 CALM      30.04S
MERIDEN        MOCLDY    51  48  89 CALM      30.03F
WILLIMANTIC    CLOUDY    50  47  89 MISG      30.05F
OXFORD         MOCLDY    52  46  82 SE5       30.04F
$$

MEZ002-015-021-024-NHZ003-005-008-011-012-014-VTZ005-008-161200-
NORTHERN NEW ENGLAND

CITY           SKY/WX    TMP DP  RH WIND       PRES   REMARKS
PORTLAND ME    LGT RAIN  52  49  89 W5        30.06S
BANGOR ME      CLOUDY    52  48  86 S7        30.03S
CONCORD NH     CLOUDY    51  50  96 CALM      30.06R
MANCHESTER NH  CLOUDY    52  46  80 CALM      30.04S
NASHUA NH      CLOUDY    49  48  96 CALM      30.06S
PORTSMOUTH NH  CLOUDY    52  49  90 W1        30.05R
JAFFREY NH     CLOUDY    47  46  97 S3        30.04F
KEENE NH       CLOUDY    50  43  76 CALM      30.04F
BURLINGTON VT  LGT RAIN  52  48  86 S6        30.02R
MT. WASHINGTON SNOW      34  34 100 W26         N/A  VSB 0   WCI  21
$$

NYZ052-076-161200-
EASTERN NEW YORK

CITY           SKY/WX    TMP DP  RH WIND       PRES   REMARKS
ALBANY         LGT RAIN  53  51  93 E3        30.03S
NEW YORK CITY  MOCLDY    63  54  72 CALM      30.00S
$$

ANZALL-161200-
MARINE OBSERVATIONS

STATION/POSITION TIME  TEMP    WIND        PRES    VSBY  WAVE
                       AIR SEA DIR/SP/G                  HT/PER
                 (UTC) (F)     (DEG/KT/KT) (MB)    (MI)  (FT/S)
BOSTON BUOY      1050   59 61  210/  4/  6 1017.9S         2/ 7
BUZZARDS BAY     1000          200/  3/  4 1018.5R
NANTUCKET SOUND  1050   62 68  170/  6/  8 1017.5R         1/ 7
MASS BAY-STELLWA 1004   61 60  170/ 10/ 10   N/A    1 7/8  2/ 6
ISLE OF SHOALS   1100   56     230/  3/  3 1017.2F
S OF BLOCK IS    1008      66                N/A           2/12
$$

......................KEY.........................
  SKY/WX - SKY CONDITION/PRESENT WEATHER
  TMP    - TEMPERATURE IN FAHRENHEIT
  DWPT   - DEWPOINT IN FAHRENHEIT
  RH     - RELATIVE HUMIDITY IN PERCENT
  WIND   - DIRECTION AND SPEED IN MPH
  PRES   - MEAN SEA LEVEL PRESSURE IN INCHES OF HG
  WCI    - WIND CHILL INDEX
  VSB    - VISIBILITY IN MILES
  HX     - HEAT INDEX
  TC     - TEMPERATURE IN CELSIUS
  VRB    - VARIABLE WIND DIRECTION
  N/A    - NOT AVAILABLE


USA.gov is the U.S. government's official web portal to all federal, state and local government web resources and services.